User: anonymous   Login
Location: Pilipovskiye Korichintsy
(49.1833°N, 27.4667°E)
Time: 23:28:55
(UTC+00:00)
Language:

Cosmos 921 Rocket - Orbit

View from above orbital plane
View from above orbital plane
View from above satellite
View from above satellite

Ground track
Ground track

The orbit data is extracted from the following two-line orbital elements,

1 10096U 77055B   20273.41955719 +.00000058 +00000-0 +82721-5 0  9993
2 10096 075.8364 027.5026 0042504 028.1210 332.2263 14.88714550340632
Epoch (UTC): 29 September 2020 10:04:09
Eccentricity: 0.0042504
inclination: 75.8364°
perigee height: 572 km
apogee height: 631 km
right ascension of ascending node: 27.5026°
argument of perigee: 28.1210°
revolutions per day: 14.88714550
mean anomaly at epoch: 332.2263°
orbit number at epoch: 34063

The dashed part of the orbit path shows where the satellite is in the earth's shadow,  

DLR